time, beta470, beta532, beta650
yyyy/mm/dd HH:MM:SS.fff, counts, counts, counts
2023/06/22 09:00:03.173, 109, 135, 80
2023/06/22 09:00:04.308, 111, 136, 82
2023/06/22 09:00:05.428, 108, 131, 87
2023/06/22 09:00:06.564, 110, 128, 89
2023/06/22 09:00:07.700, 112, 132, 85
2023/06/22 09:00:08.820, 116, 130, 79
2023/06/22 09:00:09.955, 110, 148, 82
2023/06/22 09:00:11.076, 113, 131, 81
2023/06/22 09:00:12.212, 108, 125, 82
2023/06/22 09:00:13.348, 106, 129, 85
2023/06/22 09:00:14.468, 108, 132, 82
2023/06/22 09:00:15.604, 116, 125, 81
2023/06/22 09:00:16.724, 109, 127, 78
2023/06/22 09:00:17.860, 111, 127, 87
2023/06/22 09:00:18.996, 119, 132, 83
2023/06/22 09:00:20.116, 113, 129, 79
2023/06/22 09:00:21.251, 114, 127, 80
2023/06/22 09:00:22.371, 110, 132, 80
2023/06/22 09:00:23.507, 113, 128, 91
2023/06/22 09:00:24.643, 114, 128, 93
2023/06/22 09:00:25.763, 107, 129, 86
2023/06/22 09:00:26.899, 112, 130, 88
2023/06/22 09:00:28.019, 120, 135, 89
2023/06/22 09:00:29.155, 116, 147, 95
2023/06/22 09:00:30.291, 109, 142, 94
2023/06/22 09:00:31.411, 107, 130, 88
2023/06/22 09:00:32.547, 113, 132, 89
2023/06/22 09:00:33.667, 114, 135, 82
2023/06/22 09:00:34.803, 120, 138, 87
2023/06/22 09:00:35.939, 114, 138, 96
2023/06/22 09:00:37.059, 147, 163, 90
2023/06/22 09:00:38.194, 137, 153, 85
2023/06/22 09:00:39.314, 120, 133, 85
2023/06/22 09:00:40.450, 120, 137, 84
2023/06/22 09:00:41.586, 120, 177, 89
2023/06/22 09:00:42.706, 127, 140, 84
2023/06/22 09:00:43.842, 120, 140, 84
2023/06/22 09:00:44.962, 119, 147, 94
2023/06/22 09:00:46.098, 118, 147, 90
2023/06/22 09:00:47.234, 115, 177, 86
2023/06/22 09:00:48.353, 119, 143, 90
2023/06/22 09:00:49.490, 119, 151, 91
2023/06/22 09:00:50.610, 120, 166, 87
2023/06/22 09:00:51.746, 116, 152, 86
2023/06/22 09:00:52.882, 125, 147, 89
2023/06/22 09:00:54.002, 122, 147, 90
2023/06/22 09:00:55.138, 122, 149, 111
2023/06/22 09:00:56.273, 123, 149, 93
2023/06/22 09:00:57.393, 121, 142, 85
2023/06/22 09:00:58.529, 118, 140, 85
2023/06/22 09:00:59.649, 121, 140, 87
2023/06/22 09:01:00.785, 124, 144, 86
2023/06/22 09:01:01.921, 123, 144, 86
2023/06/22 09:01:03.041, 120, 139, 85
2023/06/22 09:01:04.177, 119, 139, 87
2023/06/22 09:01:05.297, 118, 138, 88
2023/06/22 09:01:06.433, 117, 143, 83
2023/06/22 09:01:07.569, 117, 171, 80
2023/06/22 09:01:08.689, 115, 141, 87
2023/06/22 09:01:09.824, 117, 139, 87
2023/06/22 09:01:10.944, 115, 138, 90
2023/06/22 09:01:12.080, 118, 157, 91
2023/06/22 09:01:13.216, 117, 148, 88
2023/06/22 09:01:14.336, 132, 142, 85
2023/06/22 09:01:15.472, 116, 140, 86
2023/06/22 09:01:16.592, 116, 145, 87
2023/06/22 09:01:17.728, 118, 141, 88
2023/06/22 09:01:18.864, 117, 138, 82
2023/06/22 09:01:19.984, 115, 136, 86
2023/06/22 09:01:21.120, 111, 141, 101
2023/06/22 09:01:22.256, 115, 138, 85
2023/06/22 09:01:23.376, 116, 130, 84
2023/06/22 09:01:24.512, 115, 136, 80
2023/06/22 09:01:25.632, 115, 133, 84
2023/06/22 09:01:26.767, 113, 135, 92
2023/06/22 09:01:27.903, 114, 136, 91
2023/06/22 09:01:29.023, 121, 138, 87
2023/06/22 09:01:30.159, 114, 142, 85
2023/06/22 09:01:31.279, 115, 139, 85
2023/06/22 09:01:32.415, 113, 141, 85
2023/06/22 09:01:33.535, 117, 135, 79
2023/06/22 09:01:34.671, 115, 134, 80
2023/06/22 09:01:35.807, 115, 131, 79
2023/06/22 09:01:36.927, 110, 135, 82
2023/06/22 09:01:38.063, 115, 139, 80
2023/06/22 09:01:39.183, 114, 134, 79
2023/06/22 09:01:40.319, 113, 130, 79
2023/06/22 09:01:41.454, 113, 129, 81
2023/06/22 09:01:42.575, 115, 128, 81
2023/06/22 09:01:43.710, 111, 150, 82
2023/06/22 09:01:44.830, 110, 131, 82
2023/06/22 09:01:45.966, 112, 130, 83
2023/06/22 09:01:47.102, 110, 131, 79
2023/06/22 09:01:48.222, 112, 128, 81
2023/06/22 09:01:49.358, 107, 131, 78
2023/06/22 09:01:50.494, 112, 131, 78
2023/06/22 09:01:51.614, 126, 161, 80
2023/06/22 09:01:52.750, 110, 130, 83
2023/06/22 09:01:53.870, 109, 129, 83
2023/06/22 09:01:55.005, 110, 126, 77
2023/06/22 09:01:56.142, 109, 124, 79
2023/06/22 09:01:57.262, 113, 122, 77
2023/06/22 09:01:58.398, 105, 123, 78
2023/06/22 09:01:59.517, 105, 116, 76
2023/06/22 09:02:00.653, 107, 125, 84
2023/06/22 09:02:01.789, 106, 125, 78
2023/06/22 09:02:02.909, 109, 124, 74
2023/06/22 09:02:04.045, 111, 122, 76
2023/06/22 09:02:05.165, 106, 128, 77
2023/06/22 09:02:06.301, 109, 121, 78
2023/06/22 09:02:07.437, 113, 123, 76
2023/06/22 09:02:08.557, 105, 121, 76
2023/06/22 09:02:09.693, 107, 126, 76
2023/06/22 09:02:10.813, 106, 129, 78
2023/06/22 09:02:11.949, 105, 121, 77
2023/06/22 09:02:13.085, 106, 119, 74
2023/06/22 09:02:14.205, 106, 121, 76
2023/06/22 09:02:15.340, 106, 120, 77
2023/06/22 09:02:16.460, 103, 121, 77
2023/06/22 09:02:17.596, 103, 134, 80
2023/06/22 09:02:18.732, 107, 120, 78
2023/06/22 09:02:19.852, 104, 122, 74
2023/06/22 09:02:20.988, 102, 125, 72
2023/06/22 09:02:22.124, 102, 124, 78
2023/06/22 09:02:23.244, 105, 114, 75
2023/06/22 09:02:24.380, 104, 121, 73
2023/06/22 09:02:25.500, 104, 118, 71
2023/06/22 09:02:26.635, 100, 125, 75
2023/06/22 09:02:27.772, 104, 117, 84
2023/06/22 09:02:28.892, 109, 117, 78
2023/06/22 09:02:30.028, 101, 120, 75
2023/06/22 09:02:31.148, 105, 125, 71
2023/06/22 09:02:32.283, 101, 121, 76
2023/06/22 09:02:33.403, 100, 116, 71
2023/06/22 09:02:34.540, 102, 122, 75
2023/06/22 09:02:35.675, 101, 116, 74
2023/06/22 09:02:36.795, 104, 119, 73
2023/06/22 09:02:37.931, 104, 119, 72
2023/06/22 09:02:39.051, 104, 122, 72
2023/06/22 09:02:40.187, 103, 118, 73
2023/06/22 09:02:41.323, 107, 124, 72
2023/06/22 09:02:42.442, 103, 114, 72
2023/06/22 09:02:43.579, 99, 111, 71
2023/06/22 09:02:44.699, 100, 114, 71
2023/06/22 09:02:45.834, 107, 111, 71
2023/06/22 09:02:46.971, 107, 117, 72
2023/06/22 09:02:48.091, 104, 116, 84
2023/06/22 09:02:49.226, 106, 116, 73
2023/06/22 09:02:50.346, 102, 112, 73
2023/06/22 09:02:51.482, 101, 118, 73
2023/06/22 09:02:52.618, 100, 112, 70
2023/06/22 09:02:53.738, 99, 113, 70
2023/06/22 09:02:54.874, 101, 114, 74
2023/06/22 09:02:55.994, 101, 114, 73
2023/06/22 09:02:57.130, 99, 112, 74
2023/06/22 09:02:58.266, 98, 112, 72
2023/06/22 09:02:59.386, 100, 110, 71
2023/06/22 09:03:00.522, 100, 114, 71
2023/06/22 09:03:01.642, 101, 115, 71
2023/06/22 09:03:02.778, 97, 111, 72
2023/06/22 09:03:03.913, 101, 107, 71
2023/06/22 09:03:05.033, 102, 109, 73
2023/06/22 09:03:06.169, 98, 112, 72
2023/06/22 09:03:07.289, 97, 114, 72
2023/06/22 09:03:08.425, 98, 112, 69
2023/06/22 09:03:09.545, 96, 112, 70
2023/06/22 09:03:10.681, 98, 113, 71
2023/06/22 09:03:11.801, 99, 123, 72
2023/06/22 09:03:12.936, 95, 110, 67
2023/06/22 09:03:14.073, 100, 112, 72
2023/06/22 09:03:15.192, 97, 113, 71
2023/06/22 09:03:16.329, 98, 106, 71
2023/06/22 09:03:17.449, 98, 108, 68
2023/06/22 09:03:18.585, 97, 107, 69
2023/06/22 09:03:19.705, 95, 114, 69
2023/06/22 09:03:20.840, 96, 111, 69
2023/06/22 09:03:21.976, 96, 104, 70
2023/06/22 09:03:23.096, 100, 109, 71
2023/06/22 09:03:24.232, 96, 113, 70
2023/06/22 09:03:25.352, 99, 111, 70
2023/06/22 09:03:26.488, 98, 111, 68
2023/06/22 09:03:27.608, 96, 110, 72
2023/06/22 09:03:28.744, 101, 113, 72
2023/06/22 09:03:29.864, 97, 109, 70
2023/06/22 09:03:30.000, 98, 108, 70
2023/06/22 09:03:32.136, 95, 112, 71
2023/06/22 09:03:33.255, 94, 111, 67
2023/06/22 09:03:34.392, 95, 105, 69
2023/06/22 09:03:35.512, 100, 106, 72
2023/06/22 09:03:36.648, 98, 110, 67
2023/06/22 09:03:37.768, 95, 112, 69
2023/06/22 09:03:38.903, 97, 111, 70
2023/06/22 09:03:40.023, 95, 107, 67
2023/06/22 09:03:41.159, 97, 109, 68
2023/06/22 09:03:42.295, 94, 107, 68
2023/06/22 09:03:43.415, 94, 104, 67
2023/06/22 09:03:44.551, 95, 104, 71
2023/06/22 09:03:45.671, 95, 105, 70
2023/06/22 09:03:46.806, 94, 104, 68
2023/06/22 09:03:47.927, 95, 105, 66
2023/06/22 09:03:49.063, 94, 101, 70
2023/06/22 09:03:50.183, 95, 103, 67
2023/06/22 09:03:51.319, 95, 106, 70
2023/06/22 09:03:52.454, 95, 106, 69
2023/06/22 09:03:53.575, 94, 104, 72
2023/06/22 09:03:54.710, 93, 106, 66
2023/06/22 09:03:55.830, 95, 103, 67
2023/06/22 09:03:56.966, 94, 101, 70
2023/06/22 09:03:58.086, 95, 104, 69
2023/06/22 09:03:59.222, 91, 106, 68
2023/06/22 09:04:00.342, 94, 104, 68
2023/06/22 09:04:01.478, 92, 105, 66
2023/06/22 09:04:02.614, 95, 105, 68
2023/06/22 09:04:03.734, 94, 102, 69
2023/06/22 09:04:04.870, 94, 100, 66
2023/06/22 09:04:05.990, 95, 101, 65
2023/06/22 09:04:07.126, 96, 101, 69
2023/06/22 09:04:08.246, 94, 99, 68
2023/06/22 09:04:09.382, 90, 104, 66
2023/06/22 09:04:10.501, 95, 101, 69
2023/06/22 09:04:11.637, 93, 103, 63
2023/06/22 09:04:12.773, 92, 105, 67
2023/06/22 09:04:13.893, 89, 101, 69
2023/06/22 09:04:15.029, 93, 102, 67
2023/06/22 09:04:16.149, 89, 107, 66
2023/06/22 09:04:17.284, 95, 100, 65
2023/06/22 09:04:18.405, 92, 102, 65
2023/06/22 09:04:19.541, 92, 103, 67
2023/06/22 09:04:20.661, 92, 102, 65
2023/06/22 09:04:21.797, 91, 102, 68
2023/06/22 09:04:22.933, 91, 101, 68
2023/06/22 09:04:24.053, 93, 100, 63
2023/06/22 09:04:25.188, 91, 100, 67
2023/06/22 09:04:26.309, 93, 101, 65
2023/06/22 09:04:27.444, 92, 101, 66
2023/06/22 09:04:28.564, 92, 104, 64
2023/06/22 09:04:29.700, 92, 102, 68
2023/06/22 09:04:30.820, 92, 99, 67
2023/06/22 09:04:31.956, 94, 102, 66
2023/06/22 09:04:33.076, 93, 101, 68
2023/06/22 09:04:34.212, 96, 99, 67
2023/06/22 09:04:35.331, 91, 100, 62
2023/06/22 09:04:36.468, 92, 98, 66
2023/06/22 09:04:37.588, 91, 99, 70
2023/06/22 09:04:38.723, 91, 99, 65
2023/06/22 09:04:39.844, 89, 97, 63
2023/06/22 09:04:40.979, 90, 98, 65
2023/06/22 09:04:42.100, 88, 95, 67
2023/06/22 09:04:43.235, 92, 97, 66
2023/06/22 09:04:44.355, 93, 98, 66
2023/06/22 09:04:45.491, 92, 98, 64
2023/06/22 09:04:46.611, 94, 98, 66
2023/06/22 09:04:47.747, 91, 98, 64
2023/06/22 09:04:48.867, 91, 99, 69
2023/06/22 09:04:50.003, 91, 97, 68
2023/06/22 09:04:51.139, 93, 100, 65
2023/06/22 09:04:52.258, 90, 109, 65
2023/06/22 09:04:53.395, 90, 96, 64
2023/06/22 09:04:54.514, 94, 107, 66
2023/06/22 09:04:55.651, 90, 96, 69
2023/06/22 09:04:56.771, 91, 97, 62
2023/06/22 09:04:57.906, 91, 96, 68
2023/06/22 09:04:59.027, 90, 98, 65
2023/06/22 09:05:00.162, 92, 95, 62
2023/06/22 09:05:01.282, 90, 96, 67
2023/06/22 09:05:02.418, 90, 98, 65
2023/06/22 09:05:03.537, 90, 100, 69
2023/06/22 09:05:04.674, 92, 97, 66
2023/06/22 09:05:05.794, 90, 92, 68
2023/06/22 09:05:06.930, 89, 95, 66
2023/06/22 09:05:08.049, 91, 99, 66
2023/06/22 09:05:09.186, 91, 95, 60
2023/06/22 09:05:10.306, 89, 98, 65
2023/06/22 09:05:11.442, 89, 94, 65
2023/06/22 09:05:12.562, 89, 98, 64
2023/06/22 09:05:13.698, 87, 95, 64
2023/06/22 09:05:14.817, 90, 94, 65
2023/06/22 09:05:15.953, 87, 97, 63
2023/06/22 09:05:17.073, 89, 97, 66
2023/06/22 09:05:18.209, 87, 97, 64
2023/06/22 09:05:19.329, 90, 98, 64
2023/06/22 09:05:20.465, 88, 95, 60
2023/06/22 09:05:21.585, 90, 92, 64
2023/06/22 09:05:22.721, 90, 94, 64
2023/06/22 09:05:23.841, 90, 95, 65
2023/06/22 09:05:24.977, 89, 94, 63
2023/06/22 09:05:26.097, 88, 95, 64
2023/06/22 09:05:27.233, 91, 96, 63
2023/06/22 09:05:28.353, 88, 92, 64
2023/06/22 09:05:29.489, 88, 93, 63
2023/06/22 09:05:30.608, 87, 96, 64
2023/06/22 09:05:31.744, 87, 95, 65
2023/06/22 09:05:32.864, 88, 93, 63
2023/06/22 09:05:34.000, 89, 97, 64
2023/06/22 09:05:35.119, 87, 95, 63
2023/06/22 09:05:36.255, 87, 95, 66
2023/06/22 09:05:37.376, 89, 93, 67
2023/06/22 09:05:38.512, 88, 95, 61
2023/06/22 09:05:39.632, 89, 92, 60
2023/06/22 09:05:40.768, 89, 92, 62
2023/06/22 09:05:41.888, 87, 93, 64
2023/06/22 09:05:43.024, 90, 94, 60
2023/06/22 09:05:44.144, 87, 96, 63
2023/06/22 09:05:45.280, 87, 95, 66
2023/06/22 09:05:46.400, 88, 96, 63
2023/06/22 09:05:47.536, 86, 94, 63
2023/06/22 09:05:48.655, 89, 95, 62
2023/06/22 09:05:49.792, 87, 94, 63
2023/06/22 09:05:50.911, 87, 98, 62
2023/06/22 09:05:52.047, 87, 100, 61
2023/06/22 09:05:53.167, 89, 97, 64
2023/06/22 09:05:54.303, 88, 100, 62
2023/06/22 09:05:55.423, 88, 95, 65
2023/06/22 09:05:56.559, 88, 96, 67
2023/06/22 09:05:57.679, 86, 92, 62
2023/06/22 09:05:58.815, 88, 93, 64
2023/06/22 09:05:59.935, 86, 92, 62
2023/06/22 09:06:01.071, 87, 92, 64
2023/06/22 09:06:02.191, 88, 93, 62
2023/06/22 09:06:03.327, 87, 89, 66
2023/06/22 09:06:04.447, 88, 93, 61
2023/06/22 09:06:05.582, 85, 93, 61
2023/06/22 09:06:06.718, 86, 93, 64
2023/06/22 09:06:07.838, 87, 93, 63
2023/06/22 09:06:08.974, 88, 95, 62
2023/06/22 09:06:10.094, 88, 93, 63
2023/06/22 09:06:11.230, 90, 95, 63
2023/06/22 09:06:12.350, 88, 95, 62
2023/06/22 09:06:13.486, 88, 95, 60
2023/06/22 09:06:14.606, 87, 92, 64
2023/06/22 09:06:15.742, 86, 91, 60
2023/06/22 09:06:16.862, 87, 92, 64
2023/06/22 09:06:17.998, 88, 94, 62
2023/06/22 09:06:19.118, 89, 90, 61
2023/06/22 09:06:20.253, 87, 93, 63
2023/06/22 09:06:21.373, 89, 92, 63
2023/06/22 09:06:22.509, 86, 91, 62
2023/06/22 09:06:23.629, 89, 92, 62
2023/06/22 09:06:24.765, 85, 94, 64
2023/06/22 09:06:25.885, 85, 90, 62
2023/06/22 09:06:27.021, 87, 91, 62
2023/06/22 09:06:28.141, 89, 92, 63
2023/06/22 09:06:29.277, 87, 94, 61
2023/06/22 09:06:30.397, 88, 94, 65
2023/06/22 09:06:31.533, 86, 92, 62
2023/06/22 09:06:32.653, 86, 91, 65
2023/06/22 09:06:33.772, 87, 90, 63
2023/06/22 09:06:34.909, 86, 94, 64
2023/06/22 09:06:36.029, 87, 94, 67
2023/06/22 09:06:37.164, 85, 93, 59
2023/06/22 09:06:38.284, 86, 93, 62
2023/06/22 09:06:39.420, 83, 93, 64
2023/06/22 09:06:40.540, 89, 94, 62
2023/06/22 09:06:41.676, 85, 93, 62
2023/06/22 09:06:42.812, 84, 90, 63
2023/06/22 09:06:43.932, 87, 93, 64
2023/06/22 09:06:45.068, 84, 91, 65
2023/06/22 09:06:46.188, 86, 89, 60
2023/06/22 09:06:47.324, 85, 91, 60
2023/06/22 09:06:48.443, 84, 90, 62
2023/06/22 09:06:49.580, 85, 93, 59
2023/06/22 09:06:50.700, 87, 90, 61
2023/06/22 09:06:51.836, 86, 91, 63
2023/06/22 09:06:52.956, 84, 91, 61
2023/06/22 09:06:54.091, 86, 92, 60
2023/06/22 09:06:55.212, 85, 89, 63
2023/06/22 09:06:56.347, 85, 91, 64
2023/06/22 09:06:57.467, 86, 89, 61
2023/06/22 09:06:58.603, 85, 92, 62
2023/06/22 09:06:59.723, 83, 91, 63
2023/06/22 09:07:00.859, 86, 88, 61
2023/06/22 09:07:01.979, 85, 91, 61
2023/06/22 09:07:03.115, 87, 90, 61
2023/06/22 09:07:04.235, 84, 87, 62
2023/06/22 09:07:05.371, 86, 89, 61
2023/06/22 09:07:06.491, 85, 90, 61
2023/06/22 09:07:07.627, 85, 89, 62
2023/06/22 09:07:08.747, 88, 90, 62
2023/06/22 09:07:09.882, 85, 106, 61
2023/06/22 09:07:11.002, 87, 90, 62
2023/06/22 09:07:12.138, 85, 91, 61
2023/06/22 09:07:13.258, 86, 90, 60
2023/06/22 09:07:14.394, 88, 91, 62
2023/06/22 09:07:15.514, 85, 91, 65
2023/06/22 09:07:16.650, 85, 90, 62
2023/06/22 09:07:17.770, 87, 89, 61
2023/06/22 09:07:18.906, 83, 89, 60
2023/06/22 09:07:20.026, 88, 89, 61
2023/06/22 09:07:21.162, 85, 90, 59
2023/06/22 09:07:22.281, 82, 90, 61
2023/06/22 09:07:23.418, 85, 88, 60
2023/06/22 09:07:24.538, 84, 89, 59
2023/06/22 09:07:25.674, 86, 91, 62
2023/06/22 09:07:26.793, 87, 90, 64
2023/06/22 09:07:27.929, 84, 90, 62
2023/06/22 09:07:29.049, 84, 89, 60
2023/06/22 09:07:30.185, 84, 92, 58
2023/06/22 09:07:31.305, 83, 90, 61
2023/06/22 09:07:32.441, 86, 91, 61
2023/06/22 09:07:33.561, 85, 106, 61
2023/06/22 09:07:34.697, 86, 128, 60
2023/06/22 09:07:35.817, 84, 91, 61
2023/06/22 09:07:36.953, 87, 91, 64
2023/06/22 09:07:38.073, 85, 88, 62
2023/06/22 09:07:39.209, 83, 89, 61
2023/06/22 09:07:40.329, 83, 88, 61
2023/06/22 09:07:41.465, 87, 91, 63
2023/06/22 09:07:42.585, 86, 89, 59
2023/06/22 09:07:43.720, 86, 89, 62
2023/06/22 09:07:44.840, 87, 89, 60
2023/06/22 09:07:45.976, 86, 90, 62
2023/06/22 09:07:47.096, 86, 90, 57
2023/06/22 09:07:48.232, 83, 88, 62
2023/06/22 09:07:49.352, 85, 88, 62
2023/06/22 09:07:50.488, 85, 89, 62
2023/06/22 09:07:51.608, 86, 89, 60
2023/06/22 09:07:52.744, 86, 88, 60
2023/06/22 09:07:53.864, 86, 89, 62
2023/06/22 09:07:54.000, 84, 89, 58
2023/06/22 09:07:56.120, 84, 87, 58
2023/06/22 09:07:57.256, 86, 90, 64
2023/06/22 09:07:58.375, 86, 91, 60
2023/06/22 09:07:59.511, 87, 89, 63
2023/06/22 09:08:00.632, 84, 88, 58
2023/06/22 09:08:01.767, 83, 88, 63
2023/06/22 09:08:02.887, 87, 88, 63
2023/06/22 09:08:04.023, 84, 91, 63
2023/06/22 09:08:05.143, 83, 85, 62
2023/06/22 09:08:06.279, 87, 88, 62
2023/06/22 09:08:07.399, 85, 88, 59
2023/06/22 09:08:08.534, 85, 88, 60
2023/06/22 09:08:09.655, 83, 88, 61
2023/06/22 09:08:10.791, 86, 86, 62
2023/06/22 09:08:11.911, 82, 89, 59
2023/06/22 09:08:13.047, 81, 88, 62
2023/06/22 09:08:14.166, 85, 90, 59
2023/06/22 09:08:15.302, 84, 90, 60
2023/06/22 09:08:16.422, 84, 89, 62
2023/06/22 09:08:17.558, 83, 87, 61
2023/06/22 09:08:18.678, 84, 90, 60
2023/06/22 09:08:19.814, 88, 88, 60
2023/06/22 09:08:20.934, 83, 91, 60
2023/06/22 09:08:22.070, 84, 88, 61
2023/06/22 09:08:23.190, 84, 89, 60
2023/06/22 09:08:24.326, 83, 89, 64
2023/06/22 09:08:25.445, 83, 90, 61
2023/06/22 09:08:26.581, 84, 88, 59
2023/06/22 09:08:27.702, 84, 89, 61
2023/06/22 09:08:28.838, 83, 89, 63
2023/06/22 09:08:29.958, 84, 89, 62
2023/06/22 09:08:31.093, 85, 89, 59
2023/06/22 09:08:32.213, 86, 87, 59
2023/06/22 09:08:33.349, 85, 87, 59
2023/06/22 09:08:34.470, 84, 88, 59
2023/06/22 09:08:35.605, 84, 88, 61
2023/06/22 09:08:36.725, 85, 91, 58
2023/06/22 09:08:37.861, 85, 91, 59
2023/06/22 09:08:38.981, 83, 87, 64
2023/06/22 09:08:40.116, 83, 86, 64
2023/06/22 09:08:41.237, 85, 88, 59
2023/06/22 09:08:42.373, 84, 87, 60
2023/06/22 09:08:43.493, 86, 90, 59
2023/06/22 09:08:44.628, 85, 88, 60
2023/06/22 09:08:45.749, 83, 89, 58
2023/06/22 09:08:46.885, 86, 88, 61
2023/06/22 09:08:48.004, 88, 89, 63
2023/06/22 09:08:49.140, 86, 90, 58
2023/06/22 09:08:50.260, 84, 89, 58
2023/06/22 09:08:51.396, 86, 88, 60
2023/06/22 09:08:52.516, 83, 89, 63
2023/06/22 09:08:53.652, 81, 88, 60
2023/06/22 09:08:54.772, 81, 89, 58
2023/06/22 09:08:55.908, 86, 88, 59
2023/06/22 09:08:57.028, 86, 87, 59
2023/06/22 09:08:58.164, 83, 89, 60
2023/06/22 09:08:59.284, 82, 87, 60
2023/06/22 09:09:00.419, 83, 88, 60
2023/06/22 09:09:01.540, 84, 88, 59
2023/06/22 09:09:02.676, 84, 86, 61
2023/06/22 09:09:03.795, 84, 88, 62
2023/06/22 09:09:04.931, 84, 86, 62
2023/06/22 09:09:06.052, 82, 85, 60
2023/06/22 09:09:07.187, 86, 88, 62
2023/06/22 09:09:08.307, 86, 85, 60
2023/06/22 09:09:09.443, 84, 88, 62
2023/06/22 09:09:10.563, 84, 88, 63
2023/06/22 09:09:11.699, 87, 88, 61
2023/06/22 09:09:12.819, 82, 88, 63
2023/06/22 09:09:13.954, 84, 87, 61
2023/06/22 09:09:15.075, 80, 87, 63
2023/06/22 09:09:16.211, 83, 88, 61
2023/06/22 09:09:17.330, 84, 87, 62
2023/06/22 09:09:18.467, 80, 86, 63
2023/06/22 09:09:19.587, 85, 86, 61
2023/06/22 09:09:20.723, 83, 87, 60
2023/06/22 09:09:21.842, 82, 88, 60
2023/06/22 09:09:22.978, 86, 90, 61
2023/06/22 09:09:24.098, 83, 88, 60
2023/06/22 09:09:25.234, 83, 87, 62
2023/06/22 09:09:26.354, 85, 85, 62
2023/06/22 09:09:27.490, 84, 88, 58
2023/06/22 09:09:28.610, 84, 90, 61
2023/06/22 09:09:29.746, 84, 89, 62
2023/06/22 09:09:30.866, 86, 86, 63
2023/06/22 09:09:32.002, 82, 87, 59
2023/06/22 09:09:33.122, 83, 88, 60
2023/06/22 09:09:34.257, 82, 87, 60
2023/06/22 09:09:35.378, 84, 86, 61
2023/06/22 09:09:36.514, 81, 88, 61
2023/06/22 09:09:37.634, 84, 87, 60
2023/06/22 09:09:38.768, 82, 90, 65
2023/06/22 09:09:39.889, 84, 90, 62
2023/06/22 09:09:41.024, 84, 86, 62
2023/06/22 09:09:42.145, 86, 86, 60
2023/06/22 09:09:43.281, 83, 86, 59
2023/06/22 09:09:44.401, 81, 87, 60
2023/06/22 09:09:45.537, 86, 84, 60
2023/06/22 09:09:46.657, 85, 85, 62
2023/06/22 09:09:47.793, 85, 87, 59
2023/06/22 09:09:48.913, 85, 86, 59
2023/06/22 09:09:50.049, 83, 90, 62
2023/06/22 09:09:51.168, 83, 85, 59
2023/06/22 09:09:52.305, 82, 88, 60
2023/06/22 09:09:53.424, 83, 89, 60
2023/06/22 09:09:54.561, 83, 89, 59
2023/06/22 09:09:55.680, 82, 86, 58
2023/06/22 09:09:56.816, 82, 87, 62
2023/06/22 09:09:57.936, 82, 88, 61
2023/06/22 09:09:59.072, 82, 88, 60
2023/06/22 09:10:00.192, 80, 87, 63
2023/06/22 09:10:01.327, 83, 87, 62
2023/06/22 09:10:02.448, 83, 86, 59
2023/06/22 09:10:03.584, 84, 87, 61
2023/06/22 09:10:04.704, 85, 84, 59
2023/06/22 09:10:05.840, 81, 87, 60
2023/06/22 09:10:06.960, 86, 88, 61
2023/06/22 09:10:08.095, 82, 87, 59
2023/06/22 09:10:09.215, 84, 89, 63
2023/06/22 09:10:10.351, 83, 89, 62
2023/06/22 09:10:11.471, 83, 89, 60
2023/06/22 09:10:12.607, 83, 90, 65
2023/06/22 09:10:13.727, 85, 90, 64
2023/06/22 09:10:14.863, 84, 88, 63
2023/06/22 09:10:15.983, 84, 90, 63
2023/06/22 09:10:17.119, 85, 89, 63
2023/06/22 09:10:18.255, 89, 95, 61
2023/06/22 09:10:19.375, 84, 92, 66
2023/06/22 09:10:20.511, 87, 90, 65
2023/06/22 09:10:21.631, 84, 91, 67
2023/06/22 09:10:22.767, 89, 96, 65
2023/06/22 09:10:23.887, 87, 94, 63
2023/06/22 09:10:25.022, 89, 95, 64
2023/06/22 09:10:26.143, 88, 96, 63
2023/06/22 09:10:27.278, 89, 96, 62
2023/06/22 09:10:28.398, 88, 99, 65
2023/06/22 09:10:29.533, 92, 98, 67
2023/06/22 09:10:30.654, 94, 102, 68
2023/06/22 09:10:31.790, 90, 100, 66
2023/06/22 09:10:32.910, 93, 101, 67
2023/06/22 09:10:34.046, 94, 100, 68
2023/06/22 09:10:35.165, 92, 101, 68
2023/06/22 09:10:36.302, 98, 104, 68
2023/06/22 09:10:37.421, 90, 106, 74
2023/06/22 09:10:38.558, 105, 104, 162
2023/06/22 09:10:39.678, 97, 103, 78
2023/06/22 09:10:40.814, 97, 118, 70
2023/06/22 09:10:41.950, 94, 104, 69
2023/06/22 09:10:43.069, 95, 108, 68
2023/06/22 09:10:44.205, 94, 104, 70
2023/06/22 09:10:45.325, 95, 116, 72
2023/06/22 09:10:46.461, 99, 108, 68
2023/06/22 09:10:47.581, 97, 109, 69
2023/06/22 09:10:48.717, 96, 114, 72
2023/06/22 09:10:49.853, 96, 115, 74
2023/06/22 09:10:50.973, 98, 106, 70
2023/06/22 09:10:52.109, 100, 112, 71
2023/06/22 09:10:53.229, 97, 107, 69
2023/06/22 09:10:54.365, 97, 110, 70
2023/06/22 09:10:55.485, 103, 112, 74
2023/06/22 09:10:56.621, 100, 108, 73
2023/06/22 09:10:57.757, 100, 108, 73
2023/06/22 09:10:58.877, 102, 112, 72
2023/06/22 09:11:00.012, 99, 111, 73
2023/06/22 09:11:01.132, 99, 114, 74
2023/06/22 09:11:02.268, 102, 122, 73
2023/06/22 09:11:03.404, 101, 113, 74
2023/06/22 09:11:04.524, 99, 111, 71
2023/06/22 09:11:05.660, 99, 113, 73
2023/06/22 09:11:06.780, 98, 112, 204
2023/06/22 09:11:07.916, 100, 114, 74
2023/06/22 09:11:09.035, 98, 116, 84
2023/06/22 09:11:10.172, 100, 117, 72
2023/06/22 09:11:11.308, 100, 120, 73
2023/06/22 09:11:12.428, 101, 116, 76
2023/06/22 09:11:13.564, 101, 120, 77
2023/06/22 09:11:14.683, 103, 113, 75
2023/06/22 09:11:15.819, 100, 117, 75
2023/06/22 09:11:16.955, 101, 116, 76
2023/06/22 09:11:18.075, 109, 113, 76
2023/06/22 09:11:19.211, 101, 120, 78
2023/06/22 09:11:20.331, 101, 115, 78
2023/06/22 09:11:21.467, 100, 117, 76
2023/06/22 09:11:22.603, 103, 114, 76
2023/06/22 09:11:23.723, 103, 119, 74
2023/06/22 09:11:24.859, 102, 119, 79
2023/06/22 09:11:25.995, 101, 117, 79
2023/06/22 09:11:27.115, 103, 119, 73
2023/06/22 09:11:28.251, 111, 183, 77
2023/06/22 09:11:29.371, 100, 126, 73
2023/06/22 09:11:30.506, 104, 120, 74
2023/06/22 09:11:31.643, 103, 120, 918
2023/06/22 09:11:32.762, 104, 118, 81
2023/06/22 09:11:33.898, 104, 122, 78
2023/06/22 09:11:35.018, 106, 118, 78
2023/06/22 09:11:36.154, 105, 118, 74
2023/06/22 09:11:37.273, 101, 119, 81
2023/06/22 09:11:38.410, 107, 129, 78
2023/06/22 09:11:39.546, 106, 122, 77
2023/06/22 09:11:40.665, 106, 122, 79
2023/06/22 09:11:41.802, 105, 122, 76
2023/06/22 09:11:42.938, 108, 122, 79
2023/06/22 09:11:44.058, 104, 122, 76
2023/06/22 09:11:45.193, 103, 125, 78
2023/06/22 09:11:46.314, 103, 127, 76
2023/06/22 09:11:47.450, 107, 124, 75
2023/06/22 09:11:48.585, 107, 119, 82
2023/06/22 09:11:49.705, 104, 303, 79
2023/06/22 09:11:50.841, 118, 126, 76
2023/06/22 09:11:51.961, 107, 127, 80
2023/06/22 09:11:53.097, 110, 121, 77
2023/06/22 09:11:54.233, 109, 123, 78